Greenville Junction, ME

7:28 PM EDT on August 31, 2016 (GMT -0400)
Greenville

Weather History for KGNR - December, 2012

Change the Weather History Date:

Wednesday, December 19, 2012

  Actual Average (KMLT) Record (KMLT)
Temperature  
Mean Temperature 30 °F 21 °F  
Max Temperature 33 °F 29 °F 55 °F (2000)
Min Temperature 28 °F 13 °F -24 °F (1919)
Degree Days  
Heating Degree Days 34 44  
Month to date heating degree days 767  
Since 1 July heating degree days 2610  
Cooling Degree Days 0 0  
Month to date cooling degree days 0  
Year to date cooling degree days 268  
Moisture  
Dew Point 28 °F    
Average Humidity 90    
Maximum Humidity 96    
Minimum Humidity 85    
Precipitation  
Precipitation 0.44 in 0.10 in 1.44 in (1951)
Month to date precipitation 2.51  
Year to date precipitation 41.66  
Sea Level Pressure  
Sea Level Pressure 29.72 in    
Wind  
Wind Speed 9 mph (NNE)    
Max Wind Speed 15 mph    
Max Gust Speed 21 mph    
T = Trace of Precipitation, MM = Missing Value Source: NWS Daily Summary

Daily Weather History Graph

Daily Weather History Graph

Search for Another Location

Airport or City:

Trip Planner

Search our weather history database for the weather conditions in past years. The results will help you decide how hot, cold, wet, or windy it might be!

Date:

Astronomy

Dec. 19, 2012 Rise Set
Actual Time 7:14 AM EST 3:57 PM EST
Civil Twilight 6:40 AM EST 4:31 PM EST
Nautical Twilight 6:02 AM EST 5:08 PM EST
Astronomical Twilight 5:26 AM EST 5:45 PM EST
Moon 11:02 AM EST (12/19) 11:42 PM EST (12/19)
Length of Visible Light 9h 51m
Length of Day
8h 42m
Waxing Crescent, 45% of the Moon is Illuminated
Dec 19
Waxing Crescent
Dec 20
First Quarter
Dec 28
Full
Jan 4
Last Quarter
Jan 11
New

Hourly Weather History & Observations

Time (EST) Temp. Windchill Dew Point Humidity Pressure Visibility Wind Dir Wind Speed Gust Speed Precip Events Conditions
12:56 AM 32.0 °F 22.5 °F 28.9 °F 88% 29.52 in - NE 12.7 mph 18.4 mph 0.02 in   Unknown
1:56 AM 32.0 °F 21.6 °F 28.9 °F 88% 29.52 in - East 15.0 mph 19.6 mph 0.01 in   Unknown
2:56 AM 32.0 °F 23.6 °F 28.9 °F 88% 29.52 in - East 10.4 mph 18.4 mph 0.01 in   Unknown
3:56 AM 32.0 °F 24.2 °F 30.0 °F 92% 29.52 in - NE 9.2 mph - 0.03 in   Unknown
4:56 AM 30.9 °F 22.8 °F 28.9 °F 92% 29.53 in - NE 9.2 mph - 0.03 in   Unknown
5:56 AM 30.9 °F 23.5 °F 28.9 °F 92% 29.55 in - NE 8.1 mph 20.7 mph 0.04 in   Unknown
6:56 AM 30.9 °F 22.8 °F 28.9 °F 92% 29.58 in - NE 9.2 mph - 0.07 in   Unknown
7:56 AM 30.9 °F 24.3 °F 28.9 °F 92% 29.60 in - Variable 6.9 mph - 0.03 in   Unknown
8:56 AM 30.9 °F 25.2 °F 28.0 °F 89% 29.63 in - NE 5.8 mph - 0.02 in   Unknown
9:56 AM 32.0 °F 26.4 °F 28.9 °F 88% 29.64 in - North 5.8 mph - 0.01 in   Unknown
10:56 AM 30.9 °F 25.2 °F 28.9 °F 92% 29.65 in - North 5.8 mph - 0.02 in   Unknown
11:56 AM 32.0 °F 27.5 °F 28.9 °F 88% 29.67 in - Variable 4.6 mph - N/A   Unknown
12:56 PM 32.0 °F 28.7 °F 28.0 °F 85% 29.69 in - ENE 3.5 mph - N/A   Unknown
1:56 PM 33.1 °F - 28.9 °F 85% 29.71 in - Calm Calm - 0.01 in   Unknown
2:56 PM 32.0 °F 27.5 °F 28.0 °F 85% 29.75 in - North 4.6 mph - N/A   Unknown
3:56 PM 32.0 °F 27.5 °F 30.0 °F 92% 29.79 in - NW 4.6 mph - N/A   Unknown
4:56 PM 30.9 °F 23.5 °F 28.0 °F 89% 29.82 in - North 8.1 mph 17.3 mph 0.01 in   Unknown
5:56 PM 30.0 °F 20.5 °F 28.0 °F 92% 29.86 in - North 11.5 mph - 0.02 in   Unknown
6:56 PM 28.9 °F 19.8 °F 27.0 °F 92% 29.90 in - North 10.4 mph - 0.03 in   Unknown
7:56 PM 28.9 °F 20.4 °F 27.0 °F 92% 29.93 in - North 9.2 mph - 0.01 in   Unknown
8:56 PM 28.9 °F 23.9 °F 27.0 °F 92% 29.95 in - North 4.6 mph - 0.02 in   Unknown
9:56 PM 28.0 °F 22.8 °F 27.0 °F 96% 29.96 in - NNW 4.6 mph - 0.03 in   Unknown
10:56 PM 28.0 °F 22.8 °F 26.1 °F 92% 29.98 in - NNW 4.6 mph - 0.02 in   Unknown
11:56 PM 28.0 °F 21.7 °F 26.1 °F 92% 29.99 in - NNW 5.8 mph - N/A   Unknown